Home > Weather > Sarajevo > Past weeks

Flag for Bosnia-Herzegovina Past Weather in Sarajevo, Bosnia-Herzegovina — Yesterday and Last 2 Weeks

Now
72 °F

Scattered clouds.


Feels Like: 74 °F
Forecast: 60 / 84 °F
Wind: 1 mph from North

Location: Sarajevo / Butmir

Current Time: Jul 27, 2016 at 11:52:25 AM

Latest Report: Jul 27, 2016 at 11:00 AM


Visibility: N/A

Pressure: 30.07 "Hg (28.29 "Hg at 526m altitude)

Humidity: 73%

Dew Point: 63 °F

Location of SarajevoLocation

Past Weather in Sarajevo — Graph

°F

Sarajevo Temperature Yesterday

Maximum temperature yesterday: 79 °F (at 3:00 PM)
Minimum temperature yesterday: 57 °F (at 3:00 AM)
Average temperature yesterday: 68 °F

High & Low Weather Summary for the Past Weeks

 TemperatureHumidityPressure
High93 °F (Jul 13, 3:00 PM)100% (Jul 15, 9:30 PM)30.21 "Hg (Jul 15, 9:30 PM)
Low52 °F (Jul 20, 5:00 AM)28% (Jul 13, 3:00 PM)29.77 "Hg (Jul 14, 5:00 AM)
Average69 °F73%30.05 "Hg
* Reported Jul 12 10:00 AM — Jul 27 10:30 AM, Sarajevo, Weather by CustomWeather, © 2016

Note: Actual official high and low records may vary slightly from our data, if they occured in-between our weather recording intervals... More about our weather records

Advertising

Sarajevo Weather History for the Previous 24 Hours

Scroll right to see more
 ConditionsComfort  
Time TempWeatherWind HumidityBarometerVisibility
10:30 AM
Wed, Jul 27
70 °FPassing clouds.2 mph78%30.07 "HgN/A
10:00 AM70 °FPassing clouds.1 mph78%30.09 "HgN/A
9:30 AM68 °FPassing clouds.2 mph78%30.09 "HgN/A
9:00 AM64 °FPassing clouds.1 mph88%30.09 "Hg5 mi
8:30 AM63 °FScattered clouds.1 mph94%30.09 "Hg4 mi
8:00 AM61 °FPartly sunny.No wind94%30.09 "Hg5 mi
7:30 AM61 °FBroken clouds.2 mph94%30.09 "HgN/A
7:00 AM61 °FScattered clouds.1 mph94%30.09 "HgN/A
6:30 AM59 °FScattered clouds.1 mph100%30.09 "Hg5 mi
6:00 AM59 °FPassing clouds.1 mph94%30.09 "Hg5 mi
5:30 AM59 °FPassing clouds.No wind94%30.07 "Hg4 mi
5:00 AM59 °FPassing clouds.1 mph94%30.07 "Hg4 mi
4:00 AM59 °FPassing clouds.1 mph100%30.07 "Hg4 mi
3:00 AM59 °FClear.1 mph100%30.07 "Hg5 mi
2:00 AM61 °FClear.1 mph94%30.07 "Hg10 mi
1:00 AM61 °FClear.1 mph100%30.09 "Hg10 mi
12:00 AM63 °FClear.No wind94%30.09 "Hg10 mi
11:00 PM
Tue, Jul 26
64 °FClear.1 mph94%30.07 "Hg10 mi
10:30 PM64 °FClear.1 mph94%30.07 "Hg10 mi
10:00 PM66 °FPassing clouds.1 mph88%30.07 "HgN/A
9:30 PM66 °FPassing clouds.1 mph94%30.07 "HgN/A
9:00 PM68 °FScattered clouds.No wind94%30.07 "HgN/A
8:30 PM70 °FScattered clouds.2 mph88%30.04 "HgN/A
8:00 PM70 °FScattered clouds.2 mph88%30.04 "HgN/A
7:30 PM70 °FScattered clouds.2 mph88%30.04 "HgN/A
7:00 PM72 °FScattered clouds.2 mph83%30.04 "HgN/A
6:30 PM75 °FLight rain. Scattered clouds.5 mph61%30.01 "HgN/A
6:00 PM79 °FScattered clouds.5 mph58%30.01 "HgN/A
5:30 PM79 °FScattered clouds.7 mph61%30.01 "HgN/A
5:00 PM79 °FScattered clouds.6 mph61%30.01 "HgN/A
4:30 PM77 °FScattered clouds.6 mph61%30.01 "HgN/A
4:00 PM79 °FThunderstorms. Passing clouds.5 mph54%30.01 "HgN/A
3:30 PM79 °FPassing clouds.5 mph58%30.01 "HgN/A
3:00 PM79 °FPassing clouds.3 mph58%30.04 "HgN/A
2:30 PM77 °FPassing clouds.3 mph57%30.04 "HgN/A
2:00 PM77 °FPassing clouds.3 mph57%30.04 "HgN/A
1:30 PM75 °FPassing clouds.2 mph54%30.07 "HgN/A
1:00 PM75 °FScattered clouds.2 mph61%30.07 "HgN/A
12:30 PM72 °FScattered clouds.2 mph65%30.07 "HgN/A
12:00 PM72 °FScattered clouds.1 mph65%30.09 "HgN/A
11:30 AM70 °FScattered clouds.2 mph73%30.09 "HgN/A
11:00 AM68 °FPartly sunny.2 mph78%30.09 "Hg5 mi
Weather by CustomWeather, © 2016

See weather overviewHow to use our weather pages